Location: *
(46.3500°N, 10.9000°E)
Time: 10:46:34
(UTC+00:00)

Tiangong - Visible Passes

Search period start: 28 February 2024 00:00
Search period end: 09 March 2024 00:00
Orbit: 375 x 385 km, 41.5° (Epoch: 28 February)

Date Brightness Start Highest point End Pass type
(mag) Time Alt. Az. Time Alt. Az. Time Alt. Az.
28 Feb 0.2 18:15:44 10° S 18:17:03 12° SSE 18:17:05 12° SSE visible
29 Feb -0.1 18:49:38 10° SW 18:51:11 19° SSW 18:51:11 19° SSW visible
01 Mar -0.1 17:49:01 10° SSW 17:51:07 17° SSE 17:53:02 11° ESE visible
01 Mar 0.7 19:24:32 10° WSW 19:25:09 14° SW 19:25:09 14° SW visible
02 Mar -0.9 18:23:27 10° SW 18:26:10 28° S 18:26:52 25° SE visible
03 Mar -0.7 18:58:24 10° WSW 19:00:35 29° SSW 19:00:35 29° SSW visible
04 Mar -1.0 17:57:06 10° WSW 17:59:55 31° S 18:02:07 14° ESE visible
04 Mar 0.8 19:33:34 10° WSW 19:34:13 14° WSW 19:34:13 14° WSW visible
05 Mar -0.9 18:32:03 10° WSW 18:34:52 31° S 18:35:41 26° SSE visible
06 Mar -0.1 19:07:13 10° WSW 19:09:11 21° SSW 19:09:11 21° SSW visible
07 Mar -0.6 18:05:29 10° WSW 18:08:11 27° S 18:10:34 12° SE visible
08 Mar 0.1 18:40:45 10° WSW 18:42:49 16° SSW 18:44:00 14° S visible
